Location: *
(51.5000°N, 0.1100°W)
Time: 17:31:58
(UTC+00:00)

IDEFIX/ARIANE 42P - Pass Details

Date: 25 May 2024
Orbit: 783 x 799 km, 98.5° (Epoch: 16 June)

Event Time Altitude Azimuth Distance (km) Brightness Sun altitude
Rises 01:58:17 0° 15° (NNE) 3,319 7.5 -12.8°
Reaches altitude 10° 02:00:37 10° 16° (NNE) 2,385 6.4 -12.6°
Maximum altitude 02:05:55 87° 107° (ESE) 808 2.6 -12.2°
Enters shadow 02:10:20 15° 195° (SSW) 2,039 4.1 -11.9°
